Probability
0 0 0 0 0 0 0 0 0 0 0 0 0 0 0 0 0 0 0 0 0 0 0 0 0 0 0 0 0 0 0 0 0 0 0 0 0 0 0 0 0 0 0 0
0 0 0 0 0 0 0 0 0 0 0 0 0 0 0 0 0 0 0 0 0 0 0 0 0 0 0 0 0 0 0 0 0 0 0 0 0 0 0 0 0 0 0 0
0 0 0 0 0 0 0 0 0 0 0 0 0 0 0 0 0 0 0 0 0 0 0 0 0 0 0 0 0 0 0 0 0 0 0 0 0 0 0 0 0 0 0 0
0 0 0 0 0 0 0 0 0 0 0 0 0 0 0 0 0 0 0 0 0 0 0 0 0 0 0 0 0 0 0 0 0 0 0 0 0 0 0 0 0 0 0 0
0 0 0 0 0 0 0 0 0 0 0 0 0 0 0 0 0 0 0 0 0 0 0 0 0 0 0 0 0 0 0 0 0 0 0 0 0 0 0 0 0 0 0 0
0 0 0 0 0 0 0 0 0 0 0 0 0 0 0 0 0 0 0 0 0 0 0 0 0 0 0 0 0 0 0 0 0 0 0 0 0 0 0 0 0 0 0 0
0 0 0 0 0 0 0 0 0 0 0 0 0 0 0 0 0 0 0 0 0 0 0 0 0 0 0 0 0 0 0 0 0 0 0 0 0 0 0 0 0 0 0 0
0 0 0 0 0 0 0 0 0 0 0 0 0 0 0 0 0 0 0 0 0 0 0 0 0 0 0 0 0 0 0 0 0 0 0 0 0 0 0 0 0 0 0 0
0 0 0 0 0 0 0 0 0 0 0 0 0 0 0 0 0 0 0 0 0 0 0 0 0 0 0 0 0 0 0 0 0 0 0 0 0 0 0 0 0 0 0 0
0 0 0 0 0 0 0 0 0 0 0 0 0 0 0 0 0 0 0 0 0 0 0 0 0 0 0 0 0 0 0 0 0 0 0 0 0 0 0 0 0 0 0 0
0 0 0 0 0 0 0 0 0 0 0 0 0 0 0 0 0 0 0 0 0 0 0 0 0 0 0 0 0 0 0 0 0 0 0 0 0 0 0 0 0 0 0 0
0 0 0 0 0 0 0 0 0 0 0 0 0 0 0 0 0 0 0 0 0 0 0 0 0 0 0 0 0 0 0 0 0 0 0 0 0 0 0 0 0 0 0 0
0 0 0 0 0 0 0 0 0 0 0 0 0 0 0 0 0 0 0 0 0 0 0 0 0 0 0 0 0 0 0 0 0 0 0 0 0 0 0 0 0 0 0 0
0 0 0 0 0 0 0 0 0 0 0 0 0 0 0 0 0 0 0 0 0 0 0 0 0 0 0 0 0 0 0 0 0 0 0 0 0 0 0 0 0 0 0 0
0 0 0 0 0 0 0 0 0 0 0 0 0 0 0 0 0 0 0 0 0 0 0 0 0 0 0 0 0 0 0 0 0 0 0 0 0 0 0 0 0 0 0 0
0 0 0 0 0 0 0 0 0 0 0 0 0 0 0 0 0 0 0 0 0 0 0 0 0 0 0 0 0 0 0 0 0 0 0 0 0 0 0 0 0 0 0 0
0 0 0 0 0 0 0 0 0 0 0 0 0 0 0 0 0 0 0 0 0 0 0 0 0 0 0 0 0 0 0 0 0 0 0 0 0 0 0 0 0 0 0 0
0 0 0 0 0 0 0 0 0 0 0 0 0 0 0 0 0 0 0 0 0 0 0 0 0 0 0 0 0 0 0 0 0 0 0 0 0 0 0 0 0 0 0 0
0 0 0 0 0 0 0 0 0 0 0 0 0 0 0 0 0 0 0 0 0 0 0 0 0 0 0 0 0 0 0 0 0 0 0 0 0 0 0 0 0 0 0 0
0 0 0 0 0 0 0 0 0 0 0 0 0 0 0 0 0 0 0 0 0 0 0 0 0 0 0 0 0 0 0 0 0 0 0 0 0 0 0 0 0 0 0 0
0 0 0 0 0 0 0 0 0 0 0 0 0 0 0 0 0 0 0 0 0 0 0 0 0 0 0 0 0 0 0 0 0 0 0 0 0 0 0 0 0 0 0 0
0 0 0 0 0 0 0 0 0 0 0 0 0 0 0 0 0 0 0 0 0 0 0 0 0 0 0 0 0 0 0 0 0 0 0 0 0 0 0 0 0 0 0 0
0 0 0 0 0 0 0 0 0 0 0 0 0 0 0 0 0 0 0 0 0 0 0 0 0 0 0 0 0 0 0 0 0 0 0 0 0 0 0 0 0 0 0 0
0 0 0 0 0 0 0 0 0 0 0 0 0 0 0 0 0 0 0 0 0 0 0 0 0 0 0 0 0 0 0 0 0 0 0 0 0 0 0 0 0 0 0 0
0 0 0 0 0 0 0 0 0 0 0 0 0 0 0 0 0 0 0 0 0 0 0 0 0 0 0 0 0 0 0 0 0 0 0 0 0 0 0 0 0 0 0 0
0 0 0 0 0 0 0 0 0 0 0 0 0 0 0 0 0 0 0 0 0 0 0 0 0 0 0 0 0 0 0 0 0 0 0 0 0 0 0 0 0 0 0 0
0 0 0 0 0 0 0 0 0 0 0 0 0 0 0 0 0 0 0 0 0 0 0 0 0 0 0 0 0 0 0 0 0 0 0 0 0 0 0 0 0 0 0 0
Wind_Speed
13 11 15 16 17 15 23 14 11 15 12 3 11 9 5 4 2 4 4 3 3 4 3 3 5 4 4 5 3 3 2 2 3 2 5 6 5 5 4 4 4 5 5 5
13 11 11 16 14 12 16 9 10 13 6 10 10 7 6 5 5 6 5 3 4 4 4 1 3 4 3 4 5 4 1 2 4 2 4 5 5 4 4 4 5 5 7 7
10 6 10 10 6 11 12 7 8 11 1 11 11 9 8 6 7 6 4 3 2 3 5 3 2 1 3 4 4 4 4 4 3 3 1 3 3 2 3 3 3 5 7 6
8 11 11 2 1 6 8 6 4 1 3 7 8 8 8 8 8 6 4 2 1 1 1 3 4 3 5 5 1 3 4 5 5 5 7 5 4 4 3 2 3 4 6 7
7 8 11 2 3 5 6 6 5 5 7 8 9 9 9 9 7 5 3 1 3 4 1 4 5 4 4 4 4 4 3 2 1 2 4 5 4 4 4 4 5 4 4 6
10 10 11 4 3 1 5 6 5 6 6 7 8 8 6 10 8 6 4 2 3 3 3 3 3 0 2 4 2 1 1 1 1 1 3 4 2 1 1 2 4 4 2 3
8 8 5 5 3 4 6 2 3 3 6 7 7 4 7 6 6 4 3 2 1 3 5 3 3 2 2 3 3 5 5 3 3 2 1 3 6 5 4 2 1 5 5 3
5 5 2 4 4 6 4 4 3 3 5 6 3 3 4 4 4 5 5 4 3 5 5 4 3 3 2 3 5 6 5 3 4 3 5 3 1 3 3 2 3 3 6 6
6 6 2 4 6 4 5 6 3 5 5 6 5 5 5 4 4 4 4 4 4 6 7 6 6 6 4 4 4 5 5 5 6 5 6 7 7 5 4 5 5 5 6 5
8 8 5 7 8 7 6 6 6 8 8 7 7 6 5 4 4 5 5 5 6 7 5 5 6 7 6 5 5 6 5 5 4 6 7 6 7 6 5 5 7 7 7 7
12 12 7 10 11 10 9 8 9 9 8 8 7 6 5 5 5 5 5 4 4 4 4 5 4 7 6 6 6 7 7 7 6 5 5 4 7 6 4 5 5 3 3 2
12 9 7 7 10 13 13 12 12 11 11 9 8 7 6 6 6 6 6 6 5 5 5 6 6 7 7 5 3 1 2 6 6 6 6 4 6 7 3 2 2 5 2 1
14 13 10 8 6 13 15 14 13 12 13 11 10 8 8 7 7 7 7 7 7 7 6 6 6 6 6 5 3 1 2 4 6 6 5 6 6 6 6 5 2 2 4 4
15 14 11 11 11 12 15 15 15 14 14 13 11 10 9 9 9 10 9 9 8 8 7 7 7 6 6 6 4 4 2 3 3 3 4 4 4 3 3 4 4 5 5 6
15 16 17 15 14 12 14 15 15 15 15 14 13 12 12 11 11 11 11 11 10 9 8 8 7 7 7 6 4 5 5 3 2 3 3 2 2 2 2 2 2 3 3 3
11 12 16 16 14 14 16 17 16 16 16 16 14 14 14 13 12 11 11 12 11 11 10 9 9 8 7 7 5 5 3 2 2 3 5 4 2 1 1 1 2 3 4 6
12 12 15 17 17 16 18 18 17 16 17 18 16 15 15 14 13 12 12 13 13 12 11 11 10 8 9 10 8 6 6 7 4 4 4 3 2 1 1 2 2 3 2 5
10 13 16 19 18 18 18 18 17 17 17 17 17 16 15 14 14 14 14 14 13 13 13 13 11 9 10 11 11 8 6 6 7 6 4 4 3 3 3 3 3 4 3 6
8 11 15 19 19 18 18 18 18 18 17 17 18 17 15 15 15 14 14 14 14 14 15 15 12 12 12 12 11 10 9 8 8 7 6 4 4 6 5 5 5 5 4 3
11 12 14 18 21 19 17 18 18 17 18 18 17 17 15 15 14 14 15 14 13 12 14 15 15 14 14 13 13 12 11 10 9 9 8 7 8 8 7 6 6 7 5 4
13 14 13 13 17 19 17 18 18 17 17 18 17 17 16 16 15 14 14 13 14 13 13 11 13 14 13 13 13 12 12 11 10 10 9 9 8 9 7 5 8 7 6 5
12 12 12 10 11 13 14 15 17 17 17 16 16 18 17 16 15 14 15 13 12 12 12 11 12 14 13 14 13 13 13 12 11 10 9 8 5 3 5 10 11 7 6 6
10 9 10 10 8 9 10 12 13 15 16 17 16 16 15 15 14 13 13 13 12 10 10 11 12 17 16 13 12 12 12 12 11 9 8 5 4 7 12 13 8 6 6 6
13 12 10 9 8 7 8 10 11 11 13 13 13 13 13 13 12 13 13 11 13 13 12 10 12 18 17 13 12 12 11 10 9 9 10 10 9 12 12 9 6 6 5 5
12 13 14 13 10 6 5 7 8 8 8 10 12 12 11 12 12 13 12 12 13 14 13 12 13 15 14 13 12 11 9 8 9 8 8 7 8 12 8 5 5 4 5 5
14 14 12 12 11 10 7 6 9 9 9 8 7 6 6 7 9 9 9 10 13 13 12 12 14 13 13 13 12 10 9 10 10 8 7 8 11 8 5 5 5 4 5 5
12 12 10 10 9 9 9 8 7 8 9 11 8 4 4 5 6 8 10 10 10 11 12 12 13 13 12 12 11 12 11 9 7 7 7 9 8 4 4 4 4 4 4 3
Wind_Direction
291 276 261 257 259 265 278 278 276 283 294 144 161 164 140 95 74 308 300 304 314 302 304 335 331 327 343 333 332 327 340 6 23 88 124 106 84 86 96 95 86 69 52 44
285 282 290 289 291 279 270 289 292 287 297 102 125 142 146 155 195 228 241 257 271 278 271 253 308 329 27 11 22 6 81 69 16 0 131 115 107 111 122 116 103 80 56 45
298 330 293 282 301 305 306 334 302 294 335 139 149 165 164 180 212 215 237 226 289 318 291 258 227 234 101 81 48 11 7 32 44 356 322 128 107 91 105 112 91 70 61 50
287 297 292 319 266 267 276 262 247 257 150 160 175 184 180 194 216 213 201 170 26 10 268 240 220 204 156 155 111 344 10 30 21 23 28 32 57 55 47 62 47 52 69 58
288 297 298 255 210 248 285 282 190 199 178 189 179 188 202 198 203 197 191 148 332 18 50 199 213 213 190 176 208 222 208 156 68 64 99 73 39 18 3 17 39 33 55 69
283 295 301 39 112 190 290 274 141 184 186 181 191 230 167 163 181 185 182 192 279 14 68 149 161 218 211 208 216 293 340 100 94 65 140 150 156 269 330 356 26 359 29 75
283 287 299 67 131 199 259 33 93 202 190 188 224 31 83 135 161 171 178 167 263 86 101 94 69 355 342 10 36 46 30 28 50 360 217 200 206 224 229 217 32 1 339 7
270 276 291 116 201 240 339 356 322 235 188 186 183 118 141 150 162 183 194 178 184 133 138 138 136 117 104 73 49 61 70 63 64 8 349 33 59 203 194 131 81 25 350 352
298 312 354 227 248 282 303 293 255 194 169 169 167 172 166 171 179 185 203 199 184 164 165 165 171 165 131 93 86 81 69 58 56 49 27 29 38 51 81 92 72 33 5 352
268 261 241 231 229 226 238 240 190 178 167 178 176 168 168 173 175 179 193 198 178 167 177 144 157 164 152 141 151 137 118 102 88 84 67 47 45 24 35 57 71 57 37 14
265 266 257 236 223 211 202 195 187 189 180 182 180 170 171 162 163 158 165 174 177 173 160 117 127 152 163 158 156 146 151 157 144 121 125 109 78 65 53 60 66 69 77 30
265 280 250 258 206 203 198 196 194 195 196 191 193 180 173 166 160 160 157 158 165 169 165 157 149 140 142 151 166 119 175 138 145 167 168 145 127 133 147 108 183 240 228 337
264 265 254 250 223 198 202 200 196 193 193 194 195 185 175 167 164 164 162 163 167 164 158 164 173 167 165 178 194 217 23 116 158 171 143 145 153 158 157 134 59 198 207 230
248 251 246 231 222 205 203 202 195 199 198 196 192 190 183 175 169 183 185 179 176 173 172 181 195 193 185 199 224 237 187 186 213 130 122 121 119 134 142 137 153 148 190 204
248 236 235 235 220 205 201 203 200 204 204 200 195 194 196 193 189 193 193 192 190 195 196 201 212 214 208 220 240 230 216 189 185 125 102 104 128 125 86 54 4 346 336 250
260 241 231 233 221 202 200 204 206 207 208 205 200 199 203 204 203 200 197 200 203 208 211 216 224 226 217 213 204 198 181 132 226 174 161 174 151 111 58 7 324 342 351 356
255 238 222 219 220 210 205 207 207 208 208 207 204 202 207 209 211 211 209 208 212 219 218 219 226 225 211 204 206 204 181 165 219 231 193 184 191 238 299 300 316 334 343 77
258 251 235 223 217 213 210 211 210 209 209 207 205 206 209 211 216 219 220 218 216 220 224 225 224 218 212 207 207 219 209 195 194 228 213 202 221 245 262 275 290 292 303 134
286 271 254 239 229 222 215 212 211 207 207 208 208 210 212 216 221 223 224 221 221 224 225 223 204 203 213 209 204 221 222 219 217 223 232 222 220 241 248 249 258 266 280 281
319 307 278 250 234 225 217 212 209 207 207 209 213 217 218 220 222 222 222 221 221 226 228 219 197 203 212 198 194 224 229 229 236 235 226 228 238 246 244 236 247 260 262 263
345 329 300 259 236 225 219 213 206 202 205 206 210 217 219 222 222 222 219 222 222 220 227 221 202 201 203 199 190 220 237 234 229 237 239 235 243 257 268 281 269 259 261 260
348 343 326 295 254 236 225 220 210 203 201 203 206 214 219 222 223 223 224 232 231 198 203 213 203 204 204 189 205 214 225 235 236 235 239 245 253 284 294 270 258 255 255 256
325 332 342 333 298 259 237 229 219 213 209 204 204 209 214 221 225 222 217 218 224 202 204 214 193 178 191 202 217 222 228 232 232 233 233 210 222 246 253 256 255 257 256 257
299 301 312 322 319 284 245 225 213 215 228 225 221 219 218 224 232 228 222 206 192 191 207 214 174 170 184 207 218 227 229 225 222 228 219 218 236 254 256 254 255 253 245 237
281 287 286 283 283 285 285 259 218 183 209 226 224 223 227 233 238 232 214 205 182 186 202 198 173 176 195 213 218 221 220 211 208 220 243 255 264 267 265 266 264 260 265 259
273 267 263 257 263 272 275 271 258 223 206 218 213 204 218 228 233 240 228 209 197 191 205 194 178 187 205 213 216 209 203 210 204 205 225 248 259 263 270 266 252 222 235 259
268 265 269 274 264 253 253 260 280 284 257 240 240 260 272 259 241 236 227 214 209 204 210 206 177 184 206 205 198 198 201 198 201 203 226 245 252 248 245 244 246 249 252 267